This is the latest recevied weather packets stored in our database for station/object K5OLV. If no packets are shown the sender has not sent any weather packets the latest 10 day(s).
| Time | Temp. | Humidity | Pressure | Rain* | Wind** | Luminosity | Snow |
|---|---|---|---|---|---|---|---|
| 1788447487 | 29.44° C | 80% | 1017.7 hPa | 0 mm | - | 577 W/m² | - |
| 1788447182 | 30° C | 80% | 1017.4 hPa | 0 mm | - | 590 W/m² | - |
| 1788446881 | 30° C | 78% | 1017.3 hPa | 0 mm | - | 558 W/m² | - |
| 1788446577 | 31.11° C | 75% | 1017.4 hPa | 0 mm | - | 538 W/m² | - |
| 1788446272 | 31.67° C | 69% | 1017.4 hPa | 0 mm | - | 550 W/m² | - |
| 1788445968 | 31.11° C | 73% | 1017.4 hPa | 0 mm | - | 536 W/m² | - |
| 1788445664 | 31.11° C | 72% | 1017.3 hPa | 0 mm | - | 511 W/m² | - |
| 1788445359 | 30.56° C | 75% | 1017.5 hPa | 0 mm | - | 485 W/m² | - |
| 1788445055 | 30.56° C | 74% | 1017.3 hPa | 0 mm | - | 473 W/m² | - |
| 1788444750 | 29.44° C | 78% | 1017.5 hPa | 0 mm | - | 443 W/m² | - |
| 1788444445 | 28.33° C | 80% | 1017.1 hPa | 0 mm | - | 412 W/m² | - |
| 1788444140 | 27.78° C | 82% | 1017.4 hPa | 0 mm | - | 389 W/m² | - |
| 1788443836 | 28.33° C | 83% | 1017.2 hPa | 0 mm | - | 105 W/m² | - |
| 1788443532 | 28.33° C | 82% | 1017.2 hPa | 0 mm | - | 340 W/m² | - |
| 1788443230 | 27.78° C | 83% | 1017.3 hPa | 0 mm | - | 318 W/m² | - |
| 1788442926 | 27.22° C | 84% | 1017.3 hPa | 0 mm | - | 301 W/m² | - |
| 1788442624 | 26.67° C | 84% | 1017.1 hPa | 0 mm | - | 278 W/m² | - |
| 1788442315 | 26.67° C | 84% | 1017.2 hPa | 0 mm | - | 266 W/m² | - |
| 1788442015 | 26.11° C | 85% | 1017.3 hPa | 0 mm | - | 251 W/m² | - |
| 1788441714 | 25.56° C | 86% | 1017.2 hPa | 0 mm | - | 68 W/m² | - |
| 1788441409 | 25.56° C | 88% | 1017.1 hPa | 0 mm | - | 65 W/m² | - |
| 1788441108 | 25.56° C | 88% | 1017.3 hPa | 0 mm | - | 202 W/m² | - |
| 1788440804 | 25° C | 90% | 1017.3 hPa | 0 mm | - | 184 W/m² | - |
| 1788440498 | 25° C | 89% | 1017.3 hPa | 0 mm | - | 62 W/m² | - |
| 1788440196 | 25° C | 90% | 1017.3 hPa | 0 mm | - | 61 W/m² | - |
* Rain latest hour (hover to see other rain measurements)
** Current wind speed in m/s (hover to see current wind gust speed)